カタログに戻る

STARLINK-31098

運用中通信VLEO
NORAD 58716·PAYLOAD·🇺🇸 United States

打ち上げ Jan 3, 2024 から Vandenberg Space Force Base

Loading…

次のパス (今後24時間)

TLE

最新Source: CelesTrak SupGP

元期: Sep 14, 2026, 20:35 UTC

1 58716C 24002M   26257.85812500  .00014889  00000+0  44002-3 0  2575
2 58716  53.1591  70.0664 0001247  86.3662 317.8652 15.34375175    15

AllMySatでSTARLINK-31098をリアルタイム追跡

Download on the App Store